| time (UTC) | temp F | wind direction | speed MPH | gust MPH | rain 1hr in | rain 24hr in | rain mn in | humidity % | barometer mb |
| 20260503031405 | 57 | 138 | 0.0 | 0.0 | 0.00 | 0.00 | 0.00 | 59 | 982.1 |
| 20260503030351 | 57 | 138 | 0.0 | 0.0 | 0.00 | 0.00 | 0.00 | 62 | 982.1 |
| 20260503024220 | 58 | 138 | 0.0 | 0.0 | 0.00 | 0.00 | 0.00 | 62 | 981.9 |
| 20260503023236 | 58 | 138 | 0.0 | 0.0 | 0.00 | 0.00 | 0.00 | 62 | 981.7 |
| 20260503022204 | 59 | 138 | 0.0 | 0.0 | 0.00 | 0.00 | 0.00 | 63 | 981.3 |
| 20260503021133 | 59 | 138 | 0.0 | 0.0 | 0.00 | 0.00 | 0.00 | 64 | 981.3 |
| 20260503020131 | 60 | 138 | 0.0 | 0.0 | 0.00 | 0.00 | 0.00 | 65 | 981.3 |
| 20260503013956 | 62 | 138 | 0.0 | 0.0 | 0.00 | 0.00 | 0.00 | 66 | 981.1 |
| 20260503011838 | 64 | 138 | 0.0 | 0.0 | 0.00 | 0.00 | 0.00 | 63 | 981.1 |
| 20260503005642 | 67 | 138 | 0.0 | 0.0 | 0.00 | 0.00 | 0.00 | 57 | 980.8 |
| 20260503004630 | 68 | 138 | 0.0 | 0.0 | 0.00 | 0.00 | 0.00 | 56 | 980.9 |
| 20260503003636 | 69 | 138 | 0.0 | 0.0 | 0.00 | 0.00 | 0.00 | 53 | 980.7 |
| 20260503002605 | 70 | 138 | 0.0 | 0.0 | 0.00 | 0.00 | 0.00 | 50 | 980.7 |
| 20260503001630 | 71 | 138 | 0.0 | 0.0 | 0.00 | 0.00 | 0.00 | 52 | 980.7 |
| 20260503000648 | 71 | 138 | 0.0 | 0.0 | 0.00 | 0.00 | 0.00 | 49 | 980.7 |
| 20260502235706 | 72 | 138 | 0.0 | 0.0 | 0.00 | 0.00 | 0.00 | 46 | 980.6 |
| 20260502234724 | 73 | 138 | 0.0 | 0.0 | 0.00 | 0.00 | 0.00 | 46 | 980.6 |
| 20260502233656 | 73 | 138 | 0.0 | 0.0 | 0.00 | 0.00 | 0.00 | 46 | 980.5 |
| 20260502230346 | 77 | 138 | 0.0 | 0.0 | 0.00 | 0.00 | 0.00 | 42 | 980.5 |
| 20260502225328 | 77 | 138 | 0.0 | 0.0 | 0.00 | 0.00 | 0.00 | 42 | 980.5 |
| 20260502224335 | 77 | 140 | 0.0 | 0.0 | 0.00 | 0.00 | 0.00 | 42 | 980.4 |
| 20260502223320 | 77 | 140 | 0.0 | 0.0 | 0.00 | 0.00 | 0.00 | 43 | 980.5 |
| 20260502222324 | 76 | 140 | 0.0 | 0.0 | 0.00 | 0.00 | 0.00 | 46 | 980.6 |
| 20260502221250 | 76 | 140 | 0.0 | 0.0 | 0.00 | 0.00 | 0.00 | 41 | 980.6 |
| 20260502220219 | 77 | 119 | 0.0 | 1.0 | 0.00 | 0.00 | 0.00 | 39 | 980.7 |
| 20260502215155 | 77 | 115 | 0.0 | 1.0 | 0.00 | 0.00 | 0.00 | 39 | 980.7 |
| 20260502214142 | 77 | 148 | 0.0 | 0.0 | 0.00 | 0.00 | 0.00 | 42 | 980.8 |
| 20260502213114 | 76 | 154 | 0.0 | 0.0 | 0.00 | 0.00 | 0.00 | 44 | 980.9 |
| 20260502212121 | 76 | 161 | 0.0 | 1.0 | 0.00 | 0.00 | 0.00 | 41 | 981.1 |
| 20260502211140 | 76 | 151 | 0.0 | 0.0 | 0.00 | 0.00 | 0.00 | 44 | 981.2 |
| 20260502210134 | 76 | 146 | 0.0 | 0.0 | 0.00 | 0.00 | 0.00 | 44 | 981.3 |
| 20260502203957 | 76 | 190 | 0.0 | 1.0 | 0.00 | 0.00 | 0.00 | 42 | 981.6 |
| 20260502203011 | 76 | 50 | 0.0 | 4.0 | 0.00 | 0.00 | 0.00 | 40 | 981.7 |
| 20260502202029 | 76 | 330 | 0.0 | 3.0 | 0.00 | 0.00 | 0.00 | 43 | 981.8 |
| 20260502201029 | 77 | 285 | 0.0 | 0.0 | 0.00 | 0.00 | 0.00 | 50 | 981.9 |
| 20260502200038 | 76 | 297 | 0.0 | 1.0 | 0.00 | 0.00 | 0.00 | 51 | 981.9 |
| 20260502195005 | 76 | 313 | 0.0 | 0.0 | 0.00 | 0.00 | 0.00 | 48 | 982.0 |
| 20260502194022 | 76 | 315 | 0.0 | 0.0 | 0.00 | 0.00 | 0.00 | 49 | 981.9 |
| 20260502193039 | 76 | 317 | 0.0 | 0.0 | 0.00 | 0.00 | 0.00 | 50 | 982.0 |
| 20260502190923 | 75 | 307 | 0.0 | 0.0 | 0.00 | 0.00 | 0.00 | 51 | 982.1 |
| 20260502185937 | 75 | 301 | 0.0 | 0.0 | 0.00 | 0.00 | 0.00 | 54 | 982.2 |
| 20260502184934 | 74 | 301 | 0.0 | 0.0 | 0.00 | 0.00 | 0.00 | 55 | 982.2 |
| 20260502183940 | 73 | 296 | 0.0 | 0.0 | 0.00 | 0.00 | 0.00 | 57 | 982.4 |
| 20260502181921 | 74 | 321 | 0.0 | 0.0 | 0.00 | 0.00 | 0.00 | 57 | 982.5 |
| 20260502162703 | 69 | 168 | 0.0 | 0.0 | 0.00 | 0.00 | 0.00 | 61 | 983.7 |
| 20260502160545 | 68 | 170 | 0.0 | 0.0 | 0.00 | 0.00 | 0.00 | 62 | 983.8 |
| 20260502150538 | 64 | 171 | 0.0 | 0.0 | 0.00 | 0.00 | 0.00 | 22 | 983.6 |
| 20260502123715 | 48 | 171 | 0.0 | 0.0 | 0.00 | 0.00 | 0.00 | 1 | 982.1 |
| 20260502122739 | 48 | 171 | 0.0 | 0.0 | 0.00 | 0.00 | 0.00 | 1 | 981.9 |
| 20260502121754 | 48 | 171 | 0.0 | 0.0 | 0.00 | 0.00 | 0.00 | 1 | 981.8 |
| 20260502120725 | 48 | 171 | 0.0 | 0.0 | 0.00 | 0.00 | 0.00 | 1 | 981.7 |
| 20260502115721 | 48 | 171 | 0.0 | 0.0 | 0.00 | 0.00 | 0.00 | 1 | 981.4 |
| 20260502113555 | 48 | 171 | 0.0 | 0.0 | 0.00 | 0.00 | 0.00 | 1 | 981.2 |
| 20260502112616 | 48 | 171 | 0.0 | 0.0 | 0.00 | 0.00 | 0.00 | 1 | 981.1 |
| 20260502111625 | 49 | 171 | 0.0 | 0.0 | 0.00 | 0.00 | 0.00 | 1 | 981.1 |
| 20260502110559 | 49 | 171 | 0.0 | 0.0 | 0.00 | 0.00 | 0.00 | 1 | 980.8 |
| 20260502105617 | 49 | 171 | 0.0 | 0.0 | 0.00 | 0.00 | 0.00 | 1 | 980.8 |
| 20260502104614 | 49 | 171 | 0.0 | 0.0 | 0.00 | 0.00 | 0.00 | 1 | 980.5 |
| 20260502102528 | 49 | 171 | 0.0 | 0.0 | 0.00 | 0.00 | 0.00 | 1 | 980.1 |
| 20260502100319 | 50 | 171 | 0.0 | 0.0 | 0.00 | 0.00 | 0.00 | 1 | 979.7 |
| 20260502064534 | 51 | 171 | 0.0 | 0.0 | 0.00 | 0.00 | 0.00 | 1 | 979.3 |
| 20260502062441 | 51 | 171 | 0.0 | 0.0 | 0.00 | 0.00 | 0.00 | 1 | 979.1 |
| 20260502061426 | 51 | 171 | 0.0 | 0.0 | 0.00 | 0.00 | 0.00 | 1 | 979.1 |
| 20260502060438 | 52 | 171 | 0.0 | 0.0 | 0.00 | 0.00 | 0.00 | 1 | 979.4 |
| 20260502055432 | 52 | 171 | 0.0 | 0.0 | 0.00 | 0.00 | 0.00 | 1 | 979.4 |
| 20260502054439 | 52 | 171 | 0.0 | 0.0 | 0.00 | 0.00 | 0.00 | 1 | 979.4 |
| 20260502053408 | 52 | 171 | 0.0 | 0.0 | 0.00 | 0.00 | 0.00 | 1 | 979.3 |
| 20260502051235 | 52 | 171 | 0.0 | 0.0 | 0.00 | 0.00 | 0.00 | 1 | 979.0 |
| 20260502050239 | 52 | 171 | 0.0 | 0.0 | 0.00 | 0.00 | 0.00 | 1 | 979.1 |
| 20260502045234 | 52 | 171 | 0.0 | 0.0 | 0.00 | 0.00 | 0.00 | 1 | 979.1 |
| 20260502044252 | 53 | 171 | 0.0 | 0.0 | 0.00 | 0.00 | 0.00 | 1 | 979.1 |
| 20260502043244 | 53 | 171 | 0.0 | 0.0 | 0.00 | 0.00 | 0.00 | 1 | 979.0 |
| 20260502042258 | 53 | 171 | 0.0 | 0.0 | 0.00 | 0.00 | 0.00 | 1 | 979.1 |
| 20260502041306 | 53 | 171 | 0.0 | 0.0 | 0.00 | 0.00 | 0.00 | 1 | 979.0 |
| 20260502040245 | 53 | 171 | 0.0 | 0.0 | 0.00 | 0.00 | 0.00 | 1 | 979.1 |
| 20260502035251 | 53 | 171 | 0.0 | 0.0 | 0.00 | 0.00 | 0.00 | 1 | 979.0 |
| 20260502034219 | 53 | 171 | 0.0 | 0.0 | 0.00 | 0.00 | 0.00 | 1 | 979.1 |
| 20260502033211 | 53 | 171 | 0.0 | 0.0 | 0.00 | 0.00 | 0.00 | 1 | 979.1 |
| 20260502032138 | 53 | 172 | 0.0 | 0.0 | 0.00 | 0.00 | 0.00 | 1 | 979.0 |